Weather History for Casper, WY

Change the Weather History Date:

Thursday, May 16, 2013

  Actual Average Record
Temperature  
Mean Temperature 63 °F 52 °F  
Max Temperature 78 °F 67 °F 88 °F (2012)
Min Temperature 47 °F 37 °F 25 °F (2009)
Degree Days  
Heating Degree Days 2 13  
Month to date heating degree days 198 244  
Since 1 July heating degree days 7061 7286  
Cooling Degree Days 0 0  
Month to date cooling degree days 10 0  
Year to date cooling degree days 10 0  
Growing Degree Days 14 (Base 50)    
Moisture  
Dew Point 42 °F    
Average Humidity 53    
Maximum Humidity 86    
Minimum Humidity 19    
Precipitation  
Precipitation T in 0.06 in 0.80 in (1991)
Month to date precipitation 0.21 1.03  
Year to date precipitation 4.37 4.22  
Snow  
Snow 0.00 in 0.10 in - ()
Month to date snowfall 3.5 2.4  
Since 1 July snowfall 85.7 74.3  
Snow Depth 0.00 in    
Sea Level Pressure  
Sea Level Pressure 29.72 in    
Wind  
Wind Speed 11 mph (West)    
Max Wind Speed 35 mph    
Max Gust Speed 45 mph    
Visibility 10 miles    
Events Thunderstorm    
T = Trace of Precipitation, MM = Missing Value Source: NWS Daily Summary

Daily Weather History Graph

Daily Weather History Graph

Search for Another Location

Airport:

Trip Planner

Search our weather history database for the weather conditions in past years. The results will help you decide how hot, cold, wet, or windy it might be!

Date:

Astronomy

May. 16, 2013 Rise Set
Actual Time 5:41 AM MDT 8:23 PM MDT
Civil Twilight 5:08 AM MDT 8:56 PM MDT
Nautical Twilight 4:27 AM MDT 9:37 PM MDT
Astronomical Twilight 3:40 AM MDT 10:24 PM MDT
Moon 11:20 AM MDT (5/16) 12:43 AM MDT (5/16)
Length of Visible Light 15h 47m
Length of Day
14h 41m
Waxing Crescent, 36% of the Moon is Illuminated
May 16
Waxing Crescent
May 17
First Quarter
May 24
Full
May 31
Last Quarter
Jun 8
New

Hourly Weather History & Observations

Time (MDT) Temp. Dew Point Humidity Pressure Visibility Wind Dir Wind Speed Gust Speed Precip Events Conditions
12:53 AM 53.1 °F 50.0 °F 89% 29.76 in 10.0 mi SSE 4.6 mph - 0.05 in   Overcast
1:53 AM 53.1 °F 48.9 °F 86% 29.72 in 10.0 mi SE 4.6 mph - N/A   Clear
2:53 AM 48.0 °F 45.0 °F 89% 29.73 in 10.0 mi WNW 3.5 mph - N/A   Clear
3:53 AM 51.1 °F 45.0 °F 80% 29.70 in 10.0 mi SW 9.2 mph - N/A   Clear
4:53 AM 48.9 °F 45.0 °F 86% 29.75 in 10.0 mi West 8.1 mph - N/A   Partly Cloudy
5:53 AM 50.0 °F 46.0 °F 86% 29.74 in 10.0 mi SW 8.1 mph - N/A   Scattered Clouds
6:53 AM 52.0 °F 46.9 °F 83% 29.76 in 10.0 mi SW 4.6 mph - N/A   Clear
7:53 AM 55.9 °F 48.0 °F 75% 29.77 in 10.0 mi SW 8.1 mph - N/A   Clear
8:53 AM 61.0 °F 46.9 °F 60% 29.74 in 10.0 mi SW 10.4 mph - N/A   Clear
9:53 AM 64.9 °F 46.9 °F 52% 29.73 in 10.0 mi WSW 10.4 mph - N/A   Clear
10:53 AM 70.0 °F 44.1 °F 39% 29.70 in 10.0 mi WSW 11.5 mph 17.3 mph N/A   Clear
11:53 AM 73.0 °F 39.9 °F 30% 29.70 in 10.0 mi West 16.1 mph 26.5 mph N/A   Clear
12:53 PM 73.9 °F 37.0 °F 26% 29.68 in 10.0 mi WNW 24.2 mph 29.9 mph N/A   Mostly Cloudy
1:16 PM 69.8 °F 35.6 °F 28% 29.85 in 10.0 mi West 9.2 mph 25.3 mph N/A Thunderstorm Overcast
1:31 PM 75.2 °F 37.4 °F 25% 29.83 in 10.0 mi West 13.8 mph 20.7 mph N/A   Scattered Clouds
1:53 PM 75.0 °F 35.1 °F 23% 29.66 in 10.0 mi West 17.3 mph 24.2 mph N/A   Clear
2:53 PM 77.0 °F 32.0 °F 19% 29.65 in 10.0 mi West 18.4 mph 25.3 mph N/A   Clear
3:53 PM 71.1 °F 37.0 °F 29% 29.66 in 10.0 mi WNW 29.9 mph 42.6 mph N/A   Mostly Cloudy
4:53 PM 75.0 °F 36.0 °F 24% 29.66 in 10.0 mi WNW 15.0 mph 26.5 mph N/A   Clear
5:53 PM 73.0 °F 34.0 °F 24% 29.65 in 10.0 mi NW 15.0 mph 21.9 mph N/A   Clear
6:53 PM 69.1 °F 33.1 °F 26% 29.66 in 10.0 mi West 5.8 mph - N/A   Scattered Clouds
7:53 PM 60.8 °F 39.2 °F 45% 29.84 in 10.0 mi South 3.5 mph - N/A   Clear
8:53 PM 57.9 °F 42.1 °F 56% 29.71 in 10.0 mi NNW 5.8 mph - N/A   Mostly Cloudy
9:53 PM 60.1 °F 43.0 °F 53% 29.71 in 10.0 mi NNE 9.2 mph - 0.00 in   Overcast
10:53 PM 57.9 °F 44.1 °F 60% 29.73 in 10.0 mi North 9.2 mph - N/A   Overcast
11:53 PM 59.0 °F 44.1 °F 58% 29.70 in 10.0 mi East 6.9 mph - N/A   Overcast